Wind_Speed
8 8 8 8 8 9 9 9 10 10 10 10 10 11 12 12 12 12 12 12 12 12 13 12 12 12 12 12 12 12 11 11 11 10 10 11 11 11 11 12 12 13 14 14
9 9 9 9 9 9 10 10 10 11 11 11 11 11 11 12 12 12 12 12 13 13 13 13 13 12 12 12 12 12 12 12 11 11 11 11 11 12 12 13 13 13 13 13
11 10 10 10 10 10 10 11 11 11 11 11 11 11 11 12 12 12 13 13 13 13 13 13 13 13 13 13 12 12 11 12 12 12 12 12 12 13 13 13 13 13 13 13
11 11 11 11 11 11 11 12 12 11 11 11 11 11 11 11 12 12 13 13 13 13 13 13 13 14 13 13 13 13 13 13 12 12 12 13 13 14 14 13 13 13 14 14
11 11 11 11 12 12 12 12 12 12 12 12 11 12 12 12 12 12 13 13 13 13 13 13 13 13 14 14 14 14 14 13 13 13 12 13 13 14 14 14 14 14 14 15
12 12 11 11 11 12 13 13 14 13 13 13 12 12 11 12 13 13 13 14 14 14 14 14 14 14 14 14 15 15 15 14 14 14 14 14 14 15 15 15 15 15 15 16
13 12 12 12 12 12 12 13 14 14 13 13 12 13 12 13 13 13 13 14 14 15 15 15 15 15 15 15 15 15 15 15 15 15 15 14 15 15 16 16 16 16 16 17
13 13 13 12 12 12 12 13 14 14 14 14 13 13 13 13 13 14 14 14 15 15 16 16 16 16 16 16 16 16 16 16 16 16 16 16 16 16 16 17 18 18 18 18
14 14 13 13 12 13 13 13 13 14 14 14 14 13 13 13 14 14 15 15 16 16 16 17 18 18 18 18 18 17 17 17 17 17 17 17 17 17 17 17 18 19 19 19
14 14 14 14 13 13 13 13 13 14 14 14 14 14 14 15 15 15 16 17 17 17 18 18 18 18 18 19 18 18 19 19 19 19 18 18 18 18 18 19 19 20 20 21
15 15 15 15 15 14 14 14 15 15 15 15 15 15 15 16 16 17 17 18 18 19 19 19 19 19 19 19 19 19 20 19 19 19 19 19 19 20 20 21 21 21 22 22
16 16 16 17 16 16 17 17 17 17 17 17 17 16 16 16 17 17 18 18 19 19 19 19 20 20 20 20 20 20 20 19 19 20 20 20 21 21 22 23 23 23 23 23
17 18 17 17 18 18 18 18 18 18 18 19 18 17 17 17 18 18 19 19 20 20 20 20 21 21 21 21 21 21 20 20 20 20 21 21 22 22 23 24 24 24 24 24
19 19 19 18 19 19 19 19 19 20 20 20 19 18 18 19 20 19 19 19 20 20 21 21 21 21 22 22 22 21 21 21 21 21 22 22 23 23 24 24 24 25 25 25
21 21 20 20 20 20 20 20 21 21 21 21 21 20 20 21 21 21 20 20 21 21 21 21 21 22 22 22 22 22 22 22 22 22 23 23 24 24 24 25 25 26 27 26
23 22 22 22 22 22 22 21 22 22 22 22 22 21 21 22 22 22 22 21 21 21 21 22 22 22 22 23 23 23 23 23 23 23 23 24 25 25 25 26 26 27 27 27
24 24 24 23 23 23 23 22 22 23 23 23 23 23 23 22 22 22 23 23 22 22 22 22 22 23 23 24 24 25 24 24 24 24 25 25 25 25 26 26 26 26 27 27
25 26 26 26 25 26 24 23 23 23 23 23 24 23 23 23 23 22 23 23 22 22 22 23 23 24 24 24 24 24 24 25 26 26 26 26 26 26 26 26 26 26 26 26
25 26 27 28 28 27 25 24 23 23 24 23 24 24 24 23 23 23 23 24 24 23 24 24 24 24 25 25 25 25 25 26 26 26 26 26 26 26 27 27 27 26 27 26
25 26 27 28 28 27 25 24 24 24 24 24 24 24 24 24 24 24 24 24 24 24 23 24 24 24 24 24 25 25 25 26 26 26 26 26 26 26 27 27 27 27 27 26
26 26 27 28 28 28 26 25 25 25 25 25 25 25 25 25 25 24 24 24 24 24 24 24 24 24 24 24 25 25 26 26 26 27 27 27 27 27 27 27 27 27 27 27
26 27 27 27 28 27 26 27 27 26 26 26 26 26 25 25 25 24 24 24 24 24 25 25 24 24 24 25 26 26 26 26 27 27 28 28 28 28 27 27 27 27 27 26
27 27 27 28 28 27 27 27 27 28 27 27 26 26 26 26 25 24 24 24 24 25 25 25 25 25 25 26 26 27 27 27 27 27 28 28 28 28 28 28 27 27 27 26
28 28 28 28 28 27 27 27 27 27 27 27 27 26 26 26 26 25 25 25 24 24 25 25 26 26 26 27 27 27 28 28 28 28 29 28 28 28 28 27 26 26 26 25
28 28 28 28 28 28 27 27 28 28 28 27 27 26 26 26 26 26 26 25 25 25 25 26 27 27 28 28 28 28 28 29 28 28 28 28 27 28 27 27 27 27 27 26
28 28 28 27 28 29 28 28 28 28 28 27 27 27 27 27 27 27 26 26 26 26 26 27 27 27 28 28 28 28 28 28 28 28 28 28 27 27 27 27 27 27 27 27
Wind_Direction
256 260 264 263 259 256 258 259 261 263 265 264 261 257 250 251 250 248 246 247 248 249 250 252 257 260 263 266 269 272 273 275 275 273 274 273 272 274 276 278 279 277 273 273
259 263 263 264 260 256 257 259 261 264 266 266 264 260 256 253 251 250 249 250 250 250 251 254 259 261 262 267 269 269 272 272 273 273 274 274 272 274 278 278 279 278 277 278
261 263 264 261 258 257 258 261 264 265 266 266 266 262 258 255 252 250 249 249 252 252 254 256 259 261 262 264 265 269 272 271 274 275 276 277 274 274 277 278 280 277 277 279
260 261 263 263 262 262 261 263 265 265 265 266 263 261 259 258 254 251 251 251 252 252 253 254 256 258 261 262 264 268 272 272 275 280 276 276 277 274 274 275 276 277 275 277
263 266 266 269 268 265 262 261 264 266 266 263 260 259 257 257 255 252 252 253 254 253 254 256 258 259 260 262 265 269 273 274 276 279 278 277 276 275 275 275 276 277 278 277
261 263 264 265 266 264 260 260 262 263 263 261 258 258 256 255 254 254 254 254 255 256 256 258 259 260 261 263 266 269 273 275 277 277 278 277 276 277 276 275 276 276 278 278
262 263 264 265 266 266 263 263 263 263 262 263 258 257 255 255 257 257 256 256 256 257 258 258 258 260 262 264 267 270 271 274 276 276 278 278 277 277 277 276 276 276 277 279
261 262 265 266 265 266 264 261 259 261 264 265 261 261 261 259 260 260 261 261 259 260 260 261 261 261 264 265 267 269 271 273 274 274 276 277 278 277 278 277 276 277 277 277
259 260 261 263 263 261 260 259 259 262 264 264 263 263 264 263 264 265 266 265 264 263 262 262 263 263 265 265 266 268 270 272 273 273 275 277 278 277 278 279 279 278 278 277
258 260 259 259 259 258 258 258 258 261 265 267 266 266 265 265 267 270 270 269 268 266 264 263 265 265 264 265 266 268 270 271 272 273 274 276 277 278 277 279 281 279 278 278
257 260 260 260 259 260 259 258 258 259 261 264 269 269 269 267 268 269 269 269 270 269 268 266 266 266 265 266 268 270 271 272 272 273 275 277 279 279 278 279 280 281 280 279
256 258 260 261 261 261 260 260 260 262 261 261 265 269 270 269 269 271 270 269 269 270 269 267 267 267 267 267 269 270 272 273 273 273 274 278 280 280 280 280 280 280 281 280
257 257 259 261 262 262 262 260 258 260 261 265 269 269 270 268 268 269 269 269 270 269 269 269 269 267 268 269 269 271 271 273 273 274 275 278 280 281 282 282 281 280 280 280
258 258 259 262 266 266 264 261 259 262 264 267 268 268 269 269 267 266 268 269 269 268 269 269 269 269 270 270 269 270 271 271 272 274 276 278 280 282 282 282 281 281 281 280
258 260 261 261 262 265 264 263 262 263 265 267 268 267 268 269 267 267 268 269 269 269 269 268 268 269 269 269 269 270 271 271 273 276 278 279 281 282 282 281 281 281 282 282
258 261 262 262 263 264 264 264 263 264 266 268 269 269 270 271 268 267 268 268 269 270 271 270 269 270 269 270 270 270 270 271 272 275 278 280 281 282 282 282 282 282 283 283
259 261 263 264 265 264 263 264 264 265 267 269 272 272 272 272 270 267 268 269 270 271 271 272 271 271 269 270 271 272 272 272 273 275 278 280 282 284 284 283 283 283 283 284
259 260 261 263 264 265 266 267 266 267 267 269 271 271 271 271 272 272 271 271 272 271 273 273 272 272 272 271 272 272 272 273 275 277 279 282 284 285 285 284 283 283 284 284
260 260 261 262 265 266 265 266 266 266 267 268 269 270 271 271 271 272 273 273 273 272 274 274 273 273 274 274 272 272 273 274 275 276 278 281 284 285 286 285 284 283 283 283
260 261 262 263 264 265 267 266 267 268 268 269 269 270 270 271 273 274 272 271 272 273 274 275 275 274 274 274 274 274 274 274 274 274 276 279 282 284 285 286 285 284 283 282
260 261 262 263 264 266 267 267 267 268 271 271 271 271 271 272 273 273 272 271 272 274 275 275 276 276 276 275 275 274 274 275 275 275 276 279 281 284 284 285 285 285 283 281
260 261 262 263 264 267 268 268 267 268 270 271 271 271 272 272 272 272 273 272 273 274 274 275 277 277 277 276 275 274 275 276 276 277 277 279 282 283 284 285 286 285 283 281
261 262 263 263 265 267 267 268 268 268 268 269 270 271 272 272 272 272 273 274 274 274 274 275 276 277 277 276 275 275 275 277 277 278 278 280 282 283 283 284 284 284 284 282
260 261 262 263 264 265 266 266 267 268 268 269 270 270 271 272 272 272 273 274 274 273 273 275 275 276 277 276 276 275 275 276 278 279 280 281 282 282 282 283 283 284 284 282
261 262 263 263 263 263 264 265 266 267 269 270 270 270 272 273 272 272 274 274 273 274 275 276 277 277 277 277 275 274 277 277 279 280 280 279 279 280 280 281 283 284 284 284
260 261 262 263 263 263 264 264 265 266 267 269 269 269 270 272 271 272 273 273 273 275 276 278 279 277 277 276 276 276 278 279 279 279 279 280 279 279 279 280 282 284 284 284
Height
5836 5838 5837 5837 5837 5838 5838 5838 5838 5839 5839 5839 5839 5840 5840 5840 5840 5841 5842 5842 5843 5844 5844 5844 5844 5844 5844 5844 5843 5843 5842 5842 5841 5840 5839 5838 5838 5837 5837 5836 5835 5834 5834 5833
5835 5834 5834 5834 5834 5834 5835 5835 5835 5836 5835 5836 5836 5836 5836 5837 5837 5838 5839 5839 5840 5840 5841 5841 5841 5841 5841 5841 5840 5840 5839 5839 5838 5837 5836 5836 5835 5834 5834 5833 5832 5831 5830 5830
5831 5832 5831 5831 5831 5831 5832 5832 5832 5833 5833 5833 5833 5834 5834 5834 5834 5835 5835 5836 5837 5837 5838 5838 5838 5838 5838 5838 5837 5837 5836 5836 5835 5834 5833 5832 5832 5831 5830 5830 5828 5828 5827 5826
5827 5827 5827 5828 5828 5828 5828 5829 5829 5829 5830 5830 5831 5831 5831 5831 5831 5832 5832 5833 5833 5834 5834 5834 5835 5835 5835 5835 5834 5834 5833 5833 5832 5831 5830 5829 5828 5828 5827 5826 5825 5824 5823 5823
5824 5824 5824 5824 5825 5824 5825 5825 5826 5826 5826 5827 5827 5827 5829 5828 5828 5829 5829 5829 5830 5830 5831 5831 5831 5831 5831 5831 5831 5831 5830 5829 5829 5828 5827 5826 5825 5824 5823 5822 5822 5821 5820 5819
5820 5820 5820 5821 5821 5821 5821 5822 5822 5822 5823 5824 5824 5824 5825 5824 5825 5825 5826 5826 5826 5827 5827 5827 5827 5828 5828 5828 5827 5827 5827 5826 5825 5824 5823 5823 5821 5820 5819 5819 5818 5817 5816 5815
5817 5817 5817 5817 5817 5817 5818 5819 5819 5819 5819 5820 5820 5820 5821 5821 5821 5822 5822 5822 5822 5823 5823 5823 5824 5824 5824 5824 5824 5823 5823 5822 5821 5820 5819 5818 5817 5816 5816 5815 5814 5813 5812 5811
5813 5814 5814 5814 5814 5814 5814 5815 5816 5816 5816 5816 5816 5816 5818 5817 5817 5817 5818 5818 5818 5819 5819 5819 5820 5820 5820 5820 5820 5819 5819 5818 5817 5816 5815 5814 5813 5812 5811 5810 5809 5808 5807 5806
5809 5810 5810 5810 5810 5810 5810 5811 5812 5812 5811 5812 5812 5813 5814 5813 5813 5813 5814 5814 5814 5815 5815 5815 5815 5815 5815 5815 5815 5815 5814 5814 5813 5812 5811 5810 5808 5807 5806 5805 5804 5803 5802 5801
5805 5806 5806 5806 5806 5806 5807 5807 5807 5807 5807 5808 5809 5809 5810 5809 5809 5809 5809 5809 5809 5810 5810 5810 5810 5810 5810 5810 5810 5810 5810 5809 5808 5807 5806 5805 5804 5803 5801 5800 5799 5798 5796 5795
5801 5802 5802 5802 5802 5802 5803 5803 5803 5803 5803 5804 5805 5807 5805 5804 5804 5804 5804 5804 5804 5805 5805 5805 5805 5805 5805 5805 5805 5805 5804 5804 5803 5802 5801 5800 5799 5797 5796 5795 5793 5792 5790 5789
5796 5797 5797 5798 5798 5797 5798 5798 5798 5799 5799 5799 5800 5803 5800 5799 5799 5799 5799 5799 5799 5799 5799 5800 5800 5800 5799 5799 5799 5799 5799 5798 5797 5797 5796 5795 5793 5792 5790 5789 5787 5786 5784 5782
5791 5792 5793 5793 5795 5794 5793 5793 5793 5793 5793 5793 5794 5798 5795 5794 5794 5794 5794 5794 5794 5794 5794 5794 5794 5794 5793 5793 5793 5793 5793 5792 5791 5791 5790 5789 5787 5786 5784 5782 5780 5779 5777 5775
5786 5787 5788 5789 5788 5788 5788 5788 5788 5788 5788 5788 5789 5790 5789 5788 5788 5788 5788 5788 5788 5788 5788 5788 5788 5788 5787 5787 5787 5787 5786 5786 5785 5784 5783 5782 5781 5779 5777 5775 5773 5771 5769 5768
5780 5781 5781 5781 5781 5782 5782 5782 5782 5782 5782 5782 5783 5783 5783 5782 5782 5782 5782 5782 5782 5782 5781 5781 5781 5781 5781 5781 5780 5780 5779 5779 5778 5778 5777 5775 5774 5772 5770 5768 5766 5764 5761 5760
5773 5774 5775 5775 5775 5775 5775 5775 5776 5776 5776 5776 5776 5776 5776 5775 5775 5775 5775 5775 5775 5775 5775 5775 5774 5774 5774 5774 5773 5773 5773 5772 5771 5771 5769 5768 5766 5764 5762 5760 5758 5756 5753 5751
5767 5767 5768 5769 5768 5768 5769 5770 5770 5770 5770 5770 5769 5770 5769 5769 5769 5769 5768 5768 5768 5768 5768 5767 5767 5767 5767 5766 5766 5766 5765 5765 5764 5763 5762 5760 5758 5756 5754 5752 5750 5748 5745 5743
5760 5760 5760 5761 5762 5761 5765 5763 5763 5763 5763 5763 5762 5762 5762 5762 5762 5762 5761 5761 5761 5761 5760 5760 5760 5759 5759 5759 5758 5758 5757 5757 5756 5755 5754 5752 5750 5748 5746 5744 5742 5739 5737 5735
5752 5752 5753 5753 5753 5754 5756 5756 5756 5756 5756 5756 5756 5755 5755 5755 5755 5755 5755 5754 5754 5753 5753 5752 5752 5751 5751 5751 5750 5750 5750 5749 5748 5747 5746 5744 5743 5741 5738 5736 5734 5732 5729 5727
5744 5745 5746 5746 5745 5746 5750 5749 5748 5749 5749 5750 5749 5749 5748 5748 5748 5748 5747 5747 5746 5746 5746 5745 5744 5744 5744 5743 5743 5742 5742 5741 5740 5739 5738 5737 5735 5733 5731 5728 5726 5724 5721 5719
5737 5737 5738 5738 5737 5739 5741 5741 5742 5743 5743 5742 5741 5741 5741 5741 5741 5741 5740 5739 5739 5739 5738 5738 5737 5737 5736 5735 5735 5734 5734 5733 5732 5731 5730 5728 5727 5725 5723 5720 5718 5716 5713 5711
5729 5729 5730 5730 5731 5734 5733 5733 5734 5734 5734 5733 5733 5733 5733 5733 5733 5732 5732 5732 5731 5731 5731 5730 5729 5729 5728 5727 5727 5726 5726 5725 5724 5722 5721 5719 5718 5716 5714 5712 5710 5707 5705 5704
5721 5722 5722 5723 5726 5725 5724 5724 5725 5725 5725 5725 5725 5725 5725 5725 5725 5725 5725 5724 5724 5723 5723 5722 5722 5721 5720 5719 5718 5718 5717 5716 5715 5713 5712 5710 5709 5707 5705 5703 5701 5700 5698 5696
5712 5713 5713 5714 5716 5716 5716 5716 5716 5716 5716 5716 5717 5717 5717 5717 5717 5717 5717 5716 5716 5715 5715 5714 5714 5713 5712 5711 5710 5709 5708 5707 5706 5705 5703 5701 5700 5698 5696 5695 5693 5692 5690 5688
5704 5704 5704 5705 5707 5707 5708 5708 5708 5708 5708 5708 5709 5709 5709 5709 5709 5709 5708 5708 5707 5707 5706 5706 5705 5704 5703 5702 5701 5700 5699 5698 5697 5695 5694 5692 5690 5689 5688 5686 5685 5684 5682 5680
5695 5695 5696 5697 5698 5698 5699 5699 5699 5699 5700 5700 5700 5700 5701 5700 5700 5700 5700 5699 5699 5699 5698 5697 5696 5695 5694 5693 5692 5691 5690 5689 5687 5686 5685 5683 5682 5680 5679 5678 5677 5675 5674 5672